Погода на реке пиренга



Погода Пиренга

Мурманская область,67.5° N, 32.33° E 121 m

Погода на ближайший час

Мурманская область, 67.5° N, 32.33° E 121 m

Погода на ближайший час

15° 0 mm 5 m/s

Пиренга бывший населённый пункт в Мурманской области. Был административно подчинён городу Полярные Зори.

Карта Пиренга Мурманской области в хорошем качестве ГосГисцентр

Источник

Читайте также:  Забелелся туман над рекою
Поделиться с друзьями
Байкал24
температура°C Осадки Давление Ветер Влажность Облачность туман
Сегодня
13:00 0 mm 1011.6 hPa 4.9 m/s 79% 19% 0%
14:00 0 mm 1011.8 hPa 4.7 m/s 77% 47% 0%
15:00 0 mm 1011.7 hPa 4.4 m/s 76% 47% 0%
16:00 0 mm 1011.7 hPa 4.3 m/s 74% 58% 0%
17:00 0 mm 1011.9 hPa 4 m/s 82% 69% 0%
18:00 0 mm 1012.0 hPa 3.6 m/s 85% 45% 0%
19:00 0 mm 1012.5 hPa 3.4 m/s 87% 64% 0%
20:00 0 mm 1012.7 hPa 3.2 m/s 88% 55% 0%
21:00 0 mm 1012.8 hPa 2.9 m/s 88% 40% 0%
22:00 0 mm 1012.9 hPa 2.8 m/s 88% 25% 0%
23:00 0 mm 1013.0 hPa 2.9 m/s 88% 15% 0%
Завтра
00:00 0 mm 1013.2 hPa 2.8 m/s 88% 12% 0%
01:00 0 mm 1013.1 hPa 2.8 m/s 89% 11% 0%
02:00 0 mm 1013.2 hPa 2.7 m/s 91% 17% 0%
03:00 0 mm 1013.2 hPa 2.5 m/s 93% 59% 0%
04:00 0 mm 1013.3 hPa 2.8 m/s 93% 90% 0%
05:00 0 mm 1013.2 hPa 2.9 m/s 92% 99% 0%
06:00 0 mm 1013.2 hPa 3 m/s 95% 92% 0%
07:00 0 mm 1013.1 hPa 3 m/s 97% 81% 0%
08:00 0 mm 1013.1 hPa 2.9 m/s 99% 72% 0%
09:00 0 mm 1013.2 hPa 2.4 m/s 97% 74% 0%
10:00 0 mm 1013.4 hPa 2.3 m/s 92% 88% 0%
11:00 0 mm 1013.5 hPa 2.2 m/s 90% 95% 0%
12:00 0 mm 1013.5 hPa 2.1 m/s 87% 91% 0%
13:00 0 mm 1013.4 hPa 1.9 m/s 85% 81% 0%
14:00 0 mm 1013.3 hPa 1.5 m/s 88% 85% 0%
15:00 0 mm 1013.3 hPa 0.7 m/s 97% 66% 0%
16:00 0 mm 1013.2 hPa 0.9 m/s 93% 26% 0%
17:00 0 mm 1013.0 hPa 1.6 m/s 86% 21% 0%
18:00 0 mm 1012.8 hPa 1.4 m/s 89% 41% 0%
19:00 0 mm 1012.6 hPa 1.1 m/s 96% 48% 0%
20:00 0 mm 1012.5 hPa 1.7 m/s 94% 21% 0%
21:00 0 mm 1012.5 hPa 1.6 m/s 94% 17% 0%
22:00 0 mm 1012.7 hPa 1.4 m/s 96% 76% 0%
23:00 0 mm 1012.7 hPa 1.4 m/s 98% 52% 0%
Вторник 02-08-2022
00:00 0 mm 1012.6 hPa 1.3 m/s 99% 6% 1%
01:00 0 mm 1012.5 hPa 1.1 m/s 99% 0% 1%
02:00 0 mm 1012.3 hPa 0.7 m/s 100% 0% 1%
03:00 0 mm 1012.1 hPa 0.8 m/s 100% 0% 2%
04:00 0 mm 1012.2 hPa 0.9 m/s 100% 0% 2%
05:00 0 mm 1012.2 hPa 0.7 m/s 100% 0% 3%
06:00 0 mm 1011.9 hPa 1.2 m/s 100% 0% 2%
07:00 0 mm 1011.8 hPa 1.3 m/s 96% 0% 0%
08:00 0 mm 1011.5 hPa 1.5 m/s 87% 0% 0%
09:00 0 mm 1011.4 hPa 1.8 m/s 80% 0% 0%
10:00 0 mm 1011.1 hPa 1.8 m/s 73% 0% 0%
11:00 0 mm 1010.8 hPa 2 m/s 68% 0% 0%
12:00 0 mm 1010.4 hPa 2.4 m/s 64% 2% 0%
13:00 0 mm 1010.2 hPa 2.2 m/s 66% 5% 0%
14:00 0 mm 1009.8 hPa 2.4 m/s 66% 3% 0%
15:00 0 mm 1009.6 hPa 2.8 m/s 66% 4% 0%
21:00 0 mm 1008.0 hPa 3.2 m/s 86% 95% 0%
Среда 03-08-2022
03:00 1.6 mm 1006.7 hPa 2.7 m/s 96% 91% 0%
09:00 1.5 mm 1004.4 hPa 3.6 m/s 95% 70% 0%
15:00 0 mm 1005.6 hPa 4.2 m/s 86% 45% 0%
21:00 0 mm 1007.1 hPa 2 m/s 87% 32% 0%
Четверг 04-08-2022
03:00 0 mm 1008.4 hPa 2.9 m/s 94% 33% 0%
09:00 0.5 mm 1008.9 hPa 3.3 m/s 89% 38% 0%
15:00 0 mm 1006.6 hPa 4.4 m/s 81% 92% 0%
21:00 0.6 mm 1008.6 hPa 3.5 m/s 86% 25% 0%
Пятница 05-08-2022
03:00 0.6 mm 1005.9 hPa 3.1 m/s 97% 25% 0%
09:00 0 mm 1006.5 hPa 3.7 m/s 94% 24% 0%
15:00 0 mm 1005.7 hPa 4.9 m/s 65% 21% 0%
21:00 0 mm 1007.3 hPa 3.8 m/s 87% 47% 0%
Суббота 06-08-2022
03:00 0 mm 1004.3 hPa 4.8 m/s 94% 81% 0%
09:00 3.3 mm 1002.3 hPa 4.5 m/s 88% 69% 0%
15:00 3.1 mm 1001.8 hPa 5.7 m/s 87% 99% 0%
21:00 0 mm 1001.2 hPa 5.1 m/s 94% 75% 0%
Воскресенье 07-08-2022
03:00 0.5 mm 1004.8 hPa 3.7 m/s 88% 1% 0%
09:00 0 mm 999.7 hPa 5.5 m/s 88% 88% 0%
15:00 0 mm 1010.5 hPa 5.2 m/s 68% 56% 0%
21:00 0 mm 1010.5 hPa 2.9 m/s 76% 22% 0%
Понедельник 08-08-2022
03:00 0 mm 1013.2 hPa 2.7 m/s 87% 89% 0%
09:00 0 mm 1018.1 hPa 2.6 m/s 75% 2% 0%
15:00 0 mm 1017.8 hPa 4.3 m/s 63% 74% 0%
21:00 0 mm 1020.4 hPa 1.7 m/s 75% 19% 0%
Вторник 09-08-2022
03:00 0 mm 1018.9 hPa 1.8 m/s 85% 66% 0%
09:00 mm 1019.2 hPa 2.4 m/s 78% 10% 0%